This demonstration page uses our WeatherBlox Daily Observations layout. Learn more.

Left ArrowRight Arrow

Hourly Observations for December 16, 2019

Temp ( °F °C ) Dew Point ( °F °C ) Humidity (%) Winds ( mph kmh ) Pressure ( in mb ) Visibility ( mi km ) Precip ( " mm )
12:52 am 00:52 Cloudy 22 -5.6 17 -8.3 82 82 NNE 3 6 30.16 1021 10 16 0.00 0.00
1:52 am 01:52 Cloudy 21 -6.1 18 -7.8 88 88 N 8 13 30.14 1021 10 16 0.00 0.00
2:52 am 02:52 Cloudy 21 -6.1 17 -8.3 85 85 N 6 9 30.18 1022 10 16 0.00 0.00
3:52 am 03:52 Cloudy 21 -6.1 17 -8.3 85 85 Calm 30.23 1024 10 16 0.00 0.00
4:52 am 04:52 Cloudy 21 -6.1 17 -8.3 85 85 Calm 30.22 1023 10 16 0.00 0.00
5:52 am 05:52 Cloudy 21 -6.1 18 -7.8 88 88 NW 5 7 30.22 1023 10 16 0.00 0.00
6:52 am 06:52 Cloudy 21 -6.1 17 -8.3 85 85 N 6 9 30.23 1024 7 11 0.00 0.00
7:20 am 07:20 Cloudy with Mist and Fog 20 -6.7 17 -8.3 89 89 NNW 7 11 30.27 1025 6 10 0.00 0.00
7:52 am 07:52 Cloudy 20 -6.7 17 -8.3 89 89 NW 5 7 30.25 1024 7 11 0.00 0.00
8:52 am 08:52 Cloudy with Mist and Fog 21 -6.1 18 -7.8 88 88 NW 3 6 30.27 1025 5 8 0.00 0.00
9:52 am 09:52 Cloudy with Mist and Fog 22 -5.6 18 -7.8 85 85 Calm 30.27 1025 5 8 0.00 0.00
10:52 am 10:52 Cloudy with Mist and Fog 22 -5.6 18 -7.8 85 85 N 7 11 30.28 1025 5 8 0.00 0.00
11:52 am 11:52 Cloudy with Mist and Fog 22 -5.6 18 -7.8 85 85 N 7 11 30.26 1025 5 8 0.00 0.00
12:47 pm 12:47 Mostly Cloudy with Mist and Fog 23 -5 19 -7 86 86 N 10 17 30.28 1026 6 10 0.00 0.00
12:52 pm 12:52 Mostly Cloudy with Mist and Fog 23 -5 19 -7.2 85 85 N 10 17 30.25 1024 6 10 0.00 0.00
1:52 pm 13:52 Cloudy with Mist and Fog 22 -5.6 19 -7.2 89 89 N 7 11 30.26 1025 6 10 0.00 0.00
2:52 pm 14:52 Cloudy with Mist and Fog 23 -5 19 -7.2 85 85 NNE 7 11 30.26 1025 6 10 0.00 0.00
3:52 pm 15:52 Cloudy with Mist and Fog 22 -5.6 19 -7.2 89 89 N 9 15 30.27 1025 6 10 0.00 0.00
4:52 pm 16:52 Mostly Cloudy with Mist and Fog 22 -5.6 19 -7.2 89 89 N 9 15 30.29 1026 5 8 0.00 0.00
5:33 pm 17:33 Cloudy with Mist and Fog 22 -5.6 20 -6.7 92 92 NNW 7 11 30.34 1027 5 8 0.00 0.00
5:52 pm 17:52 Cloudy with Mist and Fog 21 -6.1 20 -6.7 96 96 N 8 13 30.31 1026 4 6 0.00 0.00
6:49 pm 18:49 Cloudy with Mist and Fog 21 -6 19 -7 93 93 N 7 11 30.36 1028 4 6 0.00 0.00
6:52 pm 18:52 Cloudy with Mist and Fog 21 -6.1 20 -6.7 96 96 N 6 9 30.32 1027 4 6 0.00 0.00
7:10 pm 19:10 Cloudy with Mist and Fog 21 -6.1 20 -6.7 96 96 NNW 5 7 30.35 1028 3 4 0.00 0.00
7:52 pm 19:52 Cloudy with Mist and Fog 21 -6.1 20 -6.7 96 96 N 7 11 30.32 1027 2 3 0.00 0.00
8:29 pm 20:29 Cloudy with Mist and Fog 21 -6.1 19 -7.2 92 92 NNW 7 11 30.36 1028 2 2 0.00 0.00
8:52 pm 20:52 Cloudy with Mist and Fog 20 -6.7 19 -7.2 96 96 N 6 9 30.32 1027 2 2 0.00 0.00
9:52 pm 21:52 Cloudy with Mist and Fog 21 -6.1 20 -6.7 96 96 NNW 6 9 30.32 1027 2 2 0.00 0.00
10:52 pm 22:52 Cloudy with Light Freezing Drizzle 21 -6.1 20 -6.7 96 96 Calm 30.31 1026 2 2 0.00 0.00
11:09 pm 23:09 Cloudy with Mist and Fog 21 -6.1 20 -6.7 96 96 Calm 30.34 1027 2 2 0.00 0.00
11:52 pm 23:52 Cloudy with Mist and Fog 21 -6.1 20 -6.7 96 96 W 6 9 30.30 1026 2 2 0.00 0.00

Powered by AerisWeather